Weather History for Kenosha, WI

Change the Weather History Date:

Thursday, December 5, 2013

  Actual Average Record
Temperature  
Mean Temperature 28 °F -  
Max Temperature 37 °F 38 °F 66 °F (2001)
Min Temperature 19 °F 23 °F -2 °F (2005)
Degree Days  
Heating Degree Days 37    
Moisture  
Dew Point 19 °F    
Average Humidity 69    
Maximum Humidity 82    
Minimum Humidity 56    
Precipitation  
Precipitation 0.00 in - - ()
Sea Level Pressure  
Sea Level Pressure 29.95 in    
Wind  
Wind Speed 19 mph (West)    
Max Wind Speed 28 mph    
Max Gust Speed 36 mph    
Visibility 10 miles    
Events      
Averages and records for this station are not official NWS values.
T = Trace of Precipitation, MM = Missing Value Source: NWS Daily Summary

Daily Weather History Graph

Daily Weather History Graph

Search for Another Location

Airport:

Trip Planner

Search our weather history database for the weather conditions in past years. The results will help you decide how hot, cold, wet, or windy it might be!

Date:

Astronomy

Dec. 05, 2013 Rise Set
Actual Time 7:06 AM CST 4:18 PM CST
Civil Twilight 6:34 AM CST 4:50 PM CST
Nautical Twilight 5:59 AM CST 5:25 PM CST
Astronomical Twilight 5:25 AM CST 5:59 PM CST
Moon 9:24 AM CST (12/5) 7:41 PM CST (12/5)
Length of Visible Light 10h 15m
Length of Day
9h 12m
Waxing Crescent, 11% of the Moon is Illuminated
Dec 5
Waxing Crescent
Dec 9
First Quarter
Dec 17
Full
Dec 25
Last Quarter
Jan 1
New

Hourly Weather History & Observations

Time (CST) Temp. Windchill Dew Point Humidity Pressure Visibility Wind Dir Wind Speed Gust Speed Precip Events Conditions
12:35 AM 37.0 °F 26.4 °F 32.0 °F 82% 29.62 in 10.0 mi WSW 20.7 mph 35.7 mph N/A   Overcast
12:45 AM 37.0 °F 25.9 °F 32.0 °F 82% 29.63 in 10.0 mi WSW 23.0 mph 31.1 mph N/A   Overcast
12:53 AM 37.0 °F 25.6 °F 32.0 °F 82% 29.66 in 10.0 mi WSW 24.2 mph 28.8 mph N/A   Overcast
1:53 AM 35.1 °F 24.1 °F 30.0 °F 82% 29.70 in 10.0 mi West 19.6 mph 29.9 mph N/A   Overcast
2:31 AM 34.0 °F 22.4 °F 28.9 °F 82% 29.70 in 10.0 mi West 20.7 mph 26.5 mph N/A   Overcast
2:53 AM 33.1 °F 21.2 °F 28.0 °F 82% 29.73 in 10.0 mi WSW 20.7 mph - N/A   Overcast
3:23 AM 33.1 °F 20.9 °F 27.0 °F 78% 29.74 in 10.0 mi WSW 21.9 mph 29.9 mph N/A   Overcast
3:53 AM 32.0 °F 18.1 °F 26.1 °F 79% 29.76 in 10.0 mi WSW 27.6 mph 32.2 mph N/A   Overcast
4:53 AM 30.9 °F 19.1 °F 25.0 °F 79% 29.80 in 10.0 mi West 18.4 mph - N/A   Overcast
5:53 AM 30.0 °F 17.9 °F 23.0 °F 75% 29.82 in 10.0 mi West 18.4 mph 28.8 mph N/A   Overcast
6:53 AM 28.9 °F 15.1 °F 21.0 °F 72% 29.86 in 10.0 mi West 23.0 mph 33.4 mph N/A   Mostly Cloudy
7:53 AM 28.9 °F 17.7 °F 21.0 °F 72% 29.90 in 10.0 mi West 15.0 mph - N/A   Mostly Cloudy
8:17 AM 28.0 °F 14.9 °F 21.0 °F 75% 29.90 in 10.0 mi West 19.6 mph 27.6 mph N/A   Scattered Clouds
8:53 AM 27.0 °F 13.9 °F 18.0 °F 69% 29.95 in 10.0 mi West 18.4 mph 28.8 mph N/A   Scattered Clouds
9:53 AM 27.0 °F 14.3 °F 18.0 °F 69% 29.97 in 10.0 mi West 17.3 mph - N/A   Partly Cloudy
10:53 AM 27.0 °F 12.8 °F 15.1 °F 61% 30.00 in 10.0 mi West 21.9 mph 27.6 mph N/A   Clear
11:53 AM 28.0 °F 14.6 °F 14.0 °F 56% 30.00 in 10.0 mi West 20.7 mph 26.5 mph N/A   Clear
12:53 PM 27.0 °F 13.9 °F 12.9 °F 56% 30.02 in 10.0 mi WNW 18.4 mph 28.8 mph N/A   Clear
1:53 PM 26.1 °F 14.5 °F 12.9 °F 58% 30.05 in 10.0 mi West 13.8 mph - N/A   Clear
2:53 PM 25.0 °F 12.6 °F 12.0 °F 58% 30.08 in 10.0 mi West 15.0 mph - N/A   Clear
3:53 PM 24.1 °F 11.5 °F 12.0 °F 60% 30.11 in 10.0 mi West 15.0 mph - N/A   Clear
4:53 PM 24.1 °F 12.0 °F 12.0 °F 60% 30.13 in 10.0 mi West 13.8 mph - N/A   Clear
5:53 PM 24.1 °F 11.0 °F 10.9 °F 57% 30.17 in 10.0 mi West 16.1 mph 26.5 mph N/A   Clear
6:53 PM 23.0 °F 9.6 °F 10.9 °F 60% 30.18 in 10.0 mi West 16.1 mph - N/A   Clear
7:53 PM 21.9 °F 8.7 °F 10.0 °F 60% 30.20 in 10.0 mi WNW 15.0 mph 25.3 mph N/A   Clear
8:53 PM 21.0 °F 8.6 °F 9.0 °F 60% 30.22 in 10.0 mi WNW 12.7 mph 23.0 mph N/A   Clear
9:53 PM 19.9 °F 10.1 °F 9.0 °F 62% 30.22 in 10.0 mi WNW 8.1 mph - N/A   Clear
10:53 PM 19.0 °F 6.1 °F 9.0 °F 65% 30.25 in 10.0 mi WNW 12.7 mph 20.7 mph N/A   Clear
11:53 PM 19.0 °F 7.5 °F 9.0 °F 65% 30.27 in 10.0 mi WNW 10.4 mph - N/A   Clear